Home > Weather > Pau > Past weeks

Flag for France Weather for the Past 2 Weeks in Pau, Aquitaine, France

Now
59 °F

Passing clouds.


Feels Like: 59 °F
Forecast: 54 / 73 °F
Wind: 5 mph from East

Location: Pau Airport

Current Time: May 6, 2016 at 2:27:12 AM

Latest Report: May 6, 2016 at 2:00 AM


Visibility: N/A

Pressure: 29.80 "Hg

Humidity: 63%

Dew Point: 46 °F

Location of PauLocation

Historic Weather in Pau — Graph

°F

Pau Temperature Yesterday

Maximum temperature yesterday: 82 °F (at 3:30 PM)
Minimum temperature yesterday: 48 °F (at 5:00 AM)
Average temperature yesterday: 67 °F

High & Low Weather Summary for the Past Weeks

 TemperatureHumidityPressure
High82 °F (May 5, 3:30 PM)100% (Apr 21, 3:30 AM)30.45 "Hg (Apr 21, 3:30 AM)
Low36 °F (May 2, 5:30 AM)25% (May 4, 7:00 PM)29.77 "Hg (May 5, 4:30 PM)
Average53 °F69%30.11 "Hg
* Reported Apr 21 1:00 AM — May 6 1:00 AM, Pau, Weather by CustomWeather, © 2016

Note: Actual official high and low records may vary slightly from our data, if they occured in-between our weather recording intervals... More about our weather records

Advertising

Pau Weather History for the Previous 24 Hours

Scroll right to see more
 ConditionsComfort  
Time TempWeatherWind HumidityBarometerVisibility
1:00 AM
Fri, May 6
61 °FClear.3 mph55%29.80 "Hg10 mi
12:30 AM63 °FClear.3 mph52%29.80 "Hg10 mi
12:00 AM63 °FClear.3 mph52%29.80 "Hg10 mi
11:30 PM
Thu, May 5
64 °FOvercast.6 mph49%29.80 "HgN/A
11:00 PM66 °FPassing clouds.7 mph46%29.80 "HgN/A
10:30 PM66 °FMostly cloudy.7 mph49%29.80 "HgN/A
10:00 PM68 °FPassing clouds.6 mph46%29.80 "HgN/A
9:30 PM70 °FBroken clouds.8 mph46%29.80 "HgN/A
9:00 PM72 °FPassing clouds.6 mph44%29.77 "HgN/A
8:30 PM73 °FSunny.9 mph38%29.77 "Hg10 mi
8:00 PM75 °FSunny.8 mph36%29.77 "Hg10 mi
7:30 PM77 °FPassing clouds.9 mph36%29.77 "HgN/A
7:00 PM77 °FSunny.10 mph36%29.77 "Hg10 mi
6:30 PM79 °FPassing clouds.9 mph32%29.77 "HgN/A
6:00 PM81 °FPassing clouds.10 mph32%29.77 "HgN/A
5:30 PM79 °FPassing clouds.10 mph34%29.77 "HgN/A
5:00 PM81 °FPassing clouds.9 mph32%29.77 "HgN/A
4:30 PM81 °FPassing clouds.9 mph30%29.77 "HgN/A
4:00 PM82 °FPassing clouds.10 mph28%29.80 "HgN/A
3:30 PM82 °FSunny.12 mph28%29.80 "Hg10 mi
3:00 PM81 °FSunny.10 mph28%29.80 "Hg10 mi
2:30 PM81 °FPassing clouds.9 mph32%29.80 "HgN/A
2:00 PM81 °FPassing clouds.9 mph30%29.83 "HgN/A
1:30 PM81 °FPassing clouds.9 mph30%29.83 "HgN/A
1:00 PM81 °FPassing clouds.8 mph30%29.83 "HgN/A
12:30 PM79 °FPassing clouds.6 mph37%29.83 "HgN/A
12:00 PM77 °FSunny.3 mph42%29.86 "Hg10 mi
11:30 AM77 °FSunny.2 mph39%29.86 "Hg10 mi
11:00 AM75 °FSunny.2 mph41%29.86 "Hg10 mi
10:30 AM72 °FSunny.2 mph44%29.86 "Hg10 mi
10:00 AM68 °FSunny.2 mph49%29.86 "Hg10 mi
9:30 AM66 °FSunny.3 mph52%29.89 "Hg10 mi
9:00 AM63 °FSunny.5 mph56%29.89 "Hg10 mi
8:30 AM57 °FSunny.5 mph67%29.89 "Hg10 mi
8:00 AM54 °FSunny.2 mph72%29.89 "Hg10 mi
7:30 AM50 °FClear.3 mph76%29.89 "Hg10 mi
7:00 AM50 °FClear.3 mph76%29.89 "Hg10 mi
6:30 AM48 °FClear.3 mph76%29.89 "Hg10 mi
6:00 AM48 °FClear.2 mph76%29.89 "Hg10 mi
5:30 AM50 °FCool.5 mph71%29.89 "HgN/A
5:00 AM48 °FClear.3 mph71%29.92 "Hg10 mi
4:30 AM50 °FClear.1 mph67%29.92 "Hg10 mi
4:00 AM50 °FClear.No wind67%29.92 "Hg10 mi
3:30 AM52 °FClear.2 mph62%29.92 "Hg10 mi
3:00 AM52 °FClear.3 mph62%29.92 "Hg10 mi
2:30 AM52 °FClear.3 mph62%29.95 "Hg10 mi
2:00 AM52 °FClear.3 mph62%29.95 "Hg10 mi
Weather by CustomWeather, © 2016

See weather overviewHow to use our weather pages